Location: Casalecchio di Reno
(44.4760°N, 11.2757°E)
Time: 18:00:47
(UTC+02:00)

DX 1 - Pass Details

Date: 18 June 2024
Orbit: 607 x 619 km, 98.3° (Epoch: 19 July)

Event Time Altitude Azimuth Distance (km) Brightness Sun altitude
Rises 00:00:40 0° 36° (NE) 2,876 ? -20.0°
Reaches altitude 10° 00:04:24 10° 70° (ENE) 1,964 ? -20.2°
Maximum altitude 00:05:50 11° 89° (E) 1,864 ? -20.2°
Enters shadow 00:05:50 11° 89° (E) 1,864 ? -20.2°
